Location: Tierra del Sol
(32.6128°N, 116.3319°W)
Time: 15:10:14
(UTC-07:00)

Envisat - Pass Details

Date: 13 October 2017
Orbit: 764 x 766 km, 98.2° (Epoch: 16 October)

Event Time Altitude Azimuth Distance (km) Brightness Sun altitude
Exits shadow 19:37:12 14° 36° (NE) 2,033 4.9 -18.2°
Drops below altitude 10° 19:38:21 10° 25° (NNE) 2,305 5.2 -18.5°
Sets 19:41:18 0° 7° (N) 3,234 6.2 -19.1°
